Location: Heisede
(52.2582°N, 9.8523°E)
Time: 22:55:23
(UTC+00:00)

Cosmos 2084 - Pass Details

Date: 13 January 2026
Orbit: 535 x 565 km, 62.8° (Epoch: 9 February)

Event Time Altitude Azimuth Distance (km) Brightness Sun altitude
Exits shadow 06:26:25 - 252° (WSW) 2,394 6.1 -8.5°
Reaches altitude 10° 06:27:51 10° 258° (WSW) 1,849 5.5 -8.3°
Maximum altitude 06:31:48 40° 329° (NNW) 834 3.9 -7.8°
Drops below altitude 10° 06:35:43 10° 40° (NE) 1,840 6.2 -7.3°
Sets 06:38:02 0° 48° (NE) 2,731 7.2 -6.9°
